Probability
0 0 0 0 0 0 0 0 0 0 0 0 0 0 0 0 0 0 0 0 0 0 0 0 0 0 0 0 0 0 0 0 0 0 0 0 0 0 0 0 0 0 0 0
0 0 0 0 0 0 0 0 0 0 0 0 0 0 0 0 0 0 0 0 0 0 0 0 0 0 0 0 0 0 0 0 0 0 0 0 0 0 0 0 0 0 0 0
0 0 0 0 0 0 0 0 0 0 0 0 0 0 0 0 0 0 0 0 0 0 0 0 0 0 0 0 0 0 0 0 0 0 0 0 0 0 0 0 0 0 0 0
0 0 0 0 0 0 0 0 0 0 0 0 0 0 0 0 0 0 0 0 0 0 0 0 0 0 0 0 0 0 0 0 0 0 0 0 0 0 0 0 0 0 0 0
0 0 0 0 0 0 0 0 0 0 0 0 0 0 0 0 0 0 0 0 0 0 0 0 0 0 0 0 0 0 0 0 0 0 0 0 0 0 0 0 0 0 0 0
0 0 0 0 0 0 0 0 0 0 0 0 0 0 0 0 0 0 0 0 0 0 0 0 0 0 0 0 0 0 0 0 0 0 0 0 0 0 0 0 0 0 0 0
0 0 0 0 0 0 0 0 0 0 0 0 0 0 0 0 0 0 0 0 0 0 0 0 0 0 0 0 0 0 0 0 0 0 0 0 0 0 0 0 0 0 0 0
0 0 0 0 0 0 0 0 0 0 0 0 0 0 0 0 0 0 0 0 0 0 0 0 0 0 0 0 0 0 0 0 0 0 0 0 0 0 0 0 0 0 0 0
0 0 0 0 0 0 0 0 0 0 0 0 0 0 0 0 0 0 0 0 0 0 0 0 0 0 0 0 0 0 0 0 0 0 0 0 0 0 0 0 0 0 0 0
0 0 0 0 0 0 0 0 0 0 0 0 0 0 0 0 0 0 0 0 0 0 0 0 0 0 0 0 0 0 0 0 0 0 0 0 0 0 0 0 0 0 0 0
0 0 0 0 0 0 0 0 0 0 0 0 0 0 0 0 0 0 0 0 0 0 0 0 0 0 0 0 0 0 0 0 0 0 0 0 0 0 0 0 0 0 0 0
0 0 0 0 0 0 0 0 0 0 0 0 0 0 0 0 0 0 0 0 0 0 0 0 0 0 0 0 0 0 0 0 0 0 0 0 0 0 0 0 0 0 0 0
0 0 0 0 0 0 0 0 0 0 0 0 0 0 0 0 0 0 0 0 0 0 0 0 0 0 0 0 0 0 0 0 0 0 0 0 0 0 0 0 0 0 0 0
0 0 0 0 0 0 0 0 0 0 0 0 0 0 0 0 0 0 0 0 0 0 0 0 0 0 0 0 0 0 0 0 0 0 0 0 0 0 0 0 0 0 0 0
0 0 0 0 0 0 0 0 0 0 0 0 0 0 0 0 0 0 0 0 0 0 0 0 0 0 0 0 0 0 0 0 0 0 0 0 0 0 0 0 0 0 0 0
0 0 0 0 0 0 0 0 0 0 0 0 0 0 0 0 0 0 0 0 0 0 0 0 0 0 0 0 0 0 0 0 0 0 0 0 0 0 0 0 0 0 0 0
0 0 0 0 0 0 0 0 0 0 0 0 0 0 0 0 0 0 0 0 0 0 0 0 0 0 0 0 0 0 0 0 0 0 0 0 0 0 0 0 0 0 0 0
0 0 0 0 0 0 0 0 0 0 0 0 0 0 0 0 0 0 0 0 0 0 0 0 0 0 0 0 0 0 0 0 0 0 0 0 0 0 0 0 0 0 0 0
0 0 0 0 0 0 0 0 0 0 0 0 0 0 0 0 0 0 0 0 0 0 0 0 0 0 0 0 0 0 0 0 0 0 0 0 0 0 0 0 0 0 0 0
0 0 0 0 0 0 0 0 0 0 0 0 0 0 0 0 0 0 0 0 0 0 0 0 0 0 0 0 0 0 0 0 0 0 0 0 0 0 0 0 0 0 0 0
0 0 0 0 0 0 0 0 0 0 0 0 0 0 0 0 0 0 0 0 0 0 0 0 0 0 0 0 0 0 0 0 0 0 0 0 0 0 0 0 0 0 0 0
0 0 0 0 0 0 0 0 0 0 0 0 0 0 0 0 0 0 0 0 0 0 0 0 0 0 0 0 0 0 0 0 0 0 0 0 0 0 0 0 0 0 0 0
0 0 0 0 0 0 0 0 0 0 0 0 0 0 0 0 0 0 0 0 0 0 0 0 0 0 0 0 0 0 0 0 0 0 0 0 0 0 0 0 0 0 0 0
0 0 0 0 0 0 0 0 0 0 0 0 0 0 0 0 0 0 0 0 0 0 0 0 0 0 0 0 0 0 0 0 0 0 0 0 0 0 0 0 0 0 0 0
0 0 0 0 0 0 0 0 0 0 0 0 0 0 0 0 0 0 0 0 0 0 0 0 0 0 0 0 0 0 0 0 0 0 0 0 0 0 0 0 0 0 0 0
0 0 0 0 0 0 0 0 0 0 0 0 0 0 0 0 0 0 0 0 0 0 0 0 0 0 0 0 0 0 0 0 0 0 0 0 0 0 0 0 0 0 0 0
Wind_Speed
5 8 5 5 3 0 0 1 3 1 3 5 9 9 5 4 7 8 7 7 8 8 7 8 8 8 8 9 9 9 9 9 8 6 7 7 8 9 10 10 13 15 14 14
7 6 5 3 5 6 4 2 3 4 4 6 9 7 4 4 5 5 6 7 8 9 10 11 11 11 11 12 12 12 12 11 9 6 5 4 5 5 7 8 11 13 15 15
7 3 4 5 7 7 3 2 2 4 5 4 8 4 3 4 5 7 7 7 8 10 10 11 11 11 12 12 13 13 13 13 11 9 5 5 4 5 7 10 11 14 17 16
5 5 6 6 4 4 4 4 4 4 2 3 4 3 3 3 5 8 9 9 9 10 10 10 10 11 11 11 11 11 12 12 10 8 6 7 7 6 6 8 9 14 16 17
3 3 6 6 5 4 6 8 5 3 4 2 1 4 1 2 5 7 8 8 9 9 10 10 10 10 10 10 10 10 11 10 10 8 7 7 6 6 6 8 11 12 13 15
2 2 3 3 4 3 6 6 4 4 4 1 1 4 2 3 4 5 7 8 9 10 10 10 9 9 9 10 10 11 11 10 9 8 8 7 8 9 11 12 12 12 11 12
8 3 4 4 6 8 9 8 7 8 6 4 3 7 4 5 6 6 7 8 8 9 9 9 10 10 11 12 12 12 13 12 11 9 8 8 9 9 10 12 12 13 12 12
6 6 5 4 2 3 4 5 4 2 5 7 4 5 5 4 4 4 5 6 7 9 8 8 10 11 12 15 15 15 14 13 12 11 10 8 10 9 9 12 12 13 11 12
3 5 5 3 2 1 2 2 2 4 3 5 2 4 5 3 4 6 7 8 9 9 8 8 9 11 12 13 14 15 15 15 14 13 12 10 11 12 13 14 13 11 12 13
0 5 6 6 3 3 2 2 4 2 3 6 4 1 1 6 7 9 10 10 10 9 7 8 8 10 11 12 13 14 15 16 16 15 14 13 13 13 14 13 15 15 15 15
3 1 7 5 3 4 5 4 4 1 2 3 5 2 3 4 5 8 9 9 10 9 9 9 10 11 12 13 15 16 17 17 17 16 15 14 14 14 14 13 14 15 15 15
3 2 4 5 4 2 2 3 3 1 4 2 3 2 4 3 4 6 8 9 8 7 8 9 11 12 14 15 16 17 17 17 17 16 16 15 15 15 14 14 14 14 15 15
3 3 4 5 4 7 5 3 2 3 1 2 3 3 2 4 6 7 9 8 6 8 10 10 11 12 14 15 16 16 16 16 16 16 15 14 14 14 14 15 14 14 14 14
3 2 3 4 3 3 6 4 1 2 1 2 3 6 6 11 12 14 14 10 7 10 12 12 12 12 13 14 15 16 16 16 16 15 14 14 13 14 14 14 14 14 13 13
3 0 2 3 2 2 2 4 3 3 2 1 4 5 5 8 9 10 9 8 10 13 14 14 14 13 14 15 14 15 15 14 14 14 13 13 12 12 12 13 13 13 12 12
2 1 2 3 4 3 5 7 5 5 3 2 3 4 5 8 7 9 6 8 12 13 13 14 14 14 14 14 14 14 14 14 14 13 13 13 12 12 11 12 12 12 11 11
2 2 1 4 5 4 3 3 3 2 1 0 2 6 9 9 11 11 6 9 11 12 12 12 12 12 12 11 12 13 13 13 13 13 13 13 12 12 11 12 12 12 11 10
3 3 2 1 5 2 3 3 1 2 2 2 4 7 8 8 11 4 3 7 9 10 10 9 10 10 9 9 10 11 10 11 11 12 13 13 13 12 11 11 12 11 9 9
3 4 3 2 2 5 2 3 3 3 4 2 4 8 8 9 7 1 4 6 7 7 7 6 7 8 8 9 10 10 9 10 11 12 13 13 13 13 11 12 12 9 8 8
4 5 5 3 1 5 4 5 3 0 4 4 4 6 7 9 9 4 7 8 6 6 6 7 7 7 9 9 9 9 9 10 12 13 13 12 12 12 10 11 10 9 7 8
1 3 3 3 4 7 5 4 2 2 6 6 4 4 4 4 6 9 9 7 6 6 7 7 7 7 8 9 9 8 8 10 12 13 12 12 12 11 10 9 8 9 9 8
6 4 4 4 3 8 4 1 2 5 5 3 3 3 5 7 8 8 7 7 7 7 8 7 7 8 8 8 8 8 9 10 11 12 12 12 10 10 11 10 9 9 8 8
6 7 6 8 7 5 2 2 3 3 3 2 3 3 4 5 5 6 6 5 6 6 7 6 7 8 7 7 7 8 9 11 12 12 11 10 10 9 10 9 8 8 7 8
2 3 4 2 4 3 3 2 1 1 2 2 2 2 2 3 4 4 5 6 6 6 6 6 7 8 7 7 8 7 9 10 10 11 11 9 7 8 9 8 8 8 7 8
5 4 3 3 3 1 1 1 2 1 1 0 1 2 1 2 3 4 4 5 5 6 6 6 6 7 7 8 8 10 10 9 9 9 10 9 8 7 6 8 7 10 7 11
4 6 6 6 5 3 3 3 2 2 1 0 1 2 3 3 3 4 4 4 5 6 5 6 7 8 8 8 9 9 9 9 8 10 9 8 7 6 6 5 6 12 14 17
Wind_Direction
44 56 29 340 347 64 280 330 326 306 30 62 101 103 86 67 69 65 53 44 39 27 6 5 6 1 358 357 355 352 353 349 351 353 356 355 352 345 340 336 333 329 324 317
47 34 333 16 38 51 45 62 2 321 10 78 100 90 74 61 69 73 63 47 35 22 9 4 2 0 357 354 352 351 349 343 342 339 334 331 328 325 326 324 326 326 324 317
88 344 358 61 37 21 6 145 255 284 345 71 112 88 80 47 51 45 35 33 26 26 12 4 1 358 356 355 352 348 341 337 334 331 328 328 328 328 340 338 333 329 324 315
57 3 37 45 29 11 301 252 266 269 307 243 173 171 170 99 52 37 26 24 19 11 5 360 358 356 358 354 348 343 337 334 333 332 336 342 349 338 327 325 320 322 322 318
44 22 37 23 338 331 275 287 287 253 192 256 324 127 163 92 58 33 21 19 13 6 -0 355 356 355 355 350 346 340 336 335 335 337 338 342 342 330 324 328 324 324 322 322
36 41 49 336 323 337 316 345 22 57 79 9 348 128 58 19 65 42 21 13 5 357 350 350 353 354 349 346 343 340 339 336 338 340 339 342 342 337 337 338 333 330 325 325
354 7 6 3 359 2 22 33 18 5 6 277 49 89 90 66 69 57 28 8 355 346 344 351 356 353 349 347 346 344 343 342 343 343 342 341 346 340 338 337 333 330 327 328
15 329 337 357 23 337 7 83 100 289 275 295 15 101 124 97 71 48 24 1 346 344 349 360 358 354 350 348 348 347 346 344 346 349 344 347 353 349 343 338 333 329 327 325
24 293 310 325 340 68 27 54 161 169 286 282 286 127 154 65 33 18 6 355 347 343 351 357 353 352 349 347 346 346 348 349 351 352 348 351 354 350 343 338 335 332 328 324
21 292 300 316 3 7 55 98 57 53 308 293 293 134 347 1 359 358 354 345 336 338 347 352 349 349 350 348 347 350 354 354 354 354 354 353 350 347 342 339 338 335 331 327
42 306 313 356 31 341 2 44 62 71 200 249 291 332 72 32 2 345 334 331 333 340 346 351 351 354 352 352 354 355 356 356 354 352 350 350 349 344 340 339 337 335 333 329
13 98 296 289 295 334 61 76 90 45 292 254 249 236 70 21 340 330 326 326 332 343 344 350 353 355 355 356 355 354 354 353 351 349 348 349 347 343 340 339 337 337 338 336
24 82 342 349 348 4 26 40 115 154 171 249 254 257 79 345 332 335 337 336 336 347 349 354 358 358 355 355 354 352 351 350 348 347 347 347 346 342 339 338 338 341 343 346
88 98 186 236 276 320 313 319 289 125 137 283 279 297 322 345 343 340 340 341 344 350 352 356 357 355 354 355 352 348 347 347 345 345 344 344 342 339 338 339 341 344 346 351
88 155 275 271 341 348 358 347 25 86 102 165 290 294 311 320 308 308 319 337 347 349 353 355 353 352 353 353 349 346 344 343 341 340 339 336 335 336 339 340 343 345 348 351
73 107 342 318 14 37 51 21 42 60 54 346 325 298 287 291 292 315 338 350 348 349 350 350 352 351 353 350 345 343 341 339 338 338 336 334 335 337 340 342 344 344 344 345
69 92 46 293 331 53 21 356 28 16 20 333 285 273 292 307 319 321 345 352 348 346 347 351 351 349 348 343 339 336 334 335 338 337 337 337 338 339 339 342 344 341 337 338
122 107 116 323 23 4 241 239 240 268 203 210 260 276 284 287 295 300 30 352 345 347 350 352 349 343 338 332 332 330 330 335 337 339 339 340 340 339 339 343 342 338 334 334
118 128 105 89 342 285 266 272 269 269 254 223 286 296 306 313 304 169 37 8 352 356 357 353 347 334 327 328 329 330 332 337 340 342 341 340 341 339 341 344 341 336 336 340
64 86 107 112 261 263 241 257 282 135 276 263 293 308 319 335 336 326 6 4 5 11 2 354 342 330 330 328 330 331 333 340 342 340 337 337 339 338 339 341 338 336 335 343
81 65 119 163 227 265 252 271 55 85 273 294 310 318 321 313 289 314 346 356 12 11 357 348 336 328 324 325 330 332 333 338 336 336 335 336 338 335 340 336 334 337 339 341
176 166 191 160 206 261 254 123 147 234 253 271 274 278 282 284 300 325 340 350 6 0 350 342 333 328 323 324 330 334 334 332 334 334 335 333 336 341 346 335 334 336 338 338
186 187 184 185 209 227 227 170 199 224 260 261 249 263 277 292 312 329 338 352 359 349 337 329 324 321 320 323 330 331 329 332 336 335 333 330 339 340 340 337 335 336 340 338
241 147 142 219 251 211 175 184 218 237 255 252 247 280 294 304 318 333 343 351 347 334 329 323 325 323 321 324 330 325 324 331 333 332 330 329 337 339 336 339 343 340 340 340
216 166 163 234 270 173 238 322 316 296 279 277 330 332 348 340 345 352 348 342 332 331 323 324 319 316 320 323 325 326 329 328 328 329 328 329 335 327 328 336 338 340 333 344
201 172 172 214 217 188 255 305 333 326 333 117 327 350 38 37 14 0 343 328 320 320 316 318 320 328 325 322 321 320 322 324 323 332 331 326 326 326 327 319 326 336 340 344